Year,Month,Day,Hour,Minute,Value (Times are PST for temperature in C)
2016,05,07,00,00,13.30
2016,05,07,00,01,13.30
2016,05,07,00,02,13.20
2016,05,07,00,03,13.20
2016,05,07,00,04,13.20
2016,05,07,00,05,13.20
2016,05,07,00,06,13.20
2016,05,07,00,07,13.20
2016,05,07,00,08,13.10
2016,05,07,00,09,13.20
2016,05,07,00,10,13.10
2016,05,07,00,11,13.10
2016,05,07,00,12,13.10
2016,05,07,00,13,13.10
2016,05,07,00,14,13.10
2016,05,07,00,15,13.10
2016,05,07,00,16,13.10
2016,05,07,00,17,13.00
2016,05,07,00,18,13.00
2016,05,07,00,19,12.90
2016,05,07,00,20,12.90
2016,05,07,00,21,12.90
2016,05,07,00,22,12.90
2016,05,07,00,23,12.80
2016,05,07,00,24,12.80
2016,05,07,00,25,12.80
2016,05,07,00,26,12.80
2016,05,07,00,27,12.70
2016,05,07,00,28,12.70
2016,05,07,00,29,12.70
2016,05,07,00,30,12.60
2016,05,07,00,31,12.60
2016,05,07,00,32,12.60
2016,05,07,00,33,12.50
2016,05,07,00,34,12.50
2016,05,07,00,35,12.50
2016,05,07,00,36,12.40
2016,05,07,00,37,12.40
2016,05,07,00,38,12.40
2016,05,07,00,39,12.40
2016,05,07,00,40,12.40
2016,05,07,00,41,12.30
2016,05,07,00,42,12.30
2016,05,07,00,43,12.30
2016,05,07,00,44,12.30
2016,05,07,00,45,12.30
2016,05,07,00,46,12.30
2016,05,07,00,47,12.30
2016,05,07,00,48,12.20
2016,05,07,00,49,12.20
2016,05,07,00,50,12.20
2016,05,07,00,51,12.20
2016,05,07,00,52,12.20
2016,05,07,00,53,12.20
2016,05,07,00,54,12.20
2016,05,07,00,55,12.20
2016,05,07,00,56,12.20
2016,05,07,00,57,12.20
2016,05,07,00,58,12.20
2016,05,07,00,59,12.20
2016,05,07,01,00,12.10
2016,05,07,01,01,12.10
2016,05,07,01,02,12.10
2016,05,07,01,03,12.10
2016,05,07,01,04,12.10
2016,05,07,01,05,12.10
2016,05,07,01,06,12.10
2016,05,07,01,07,12.10
2016,05,07,01,08,12.00
2016,05,07,01,09,12.00
2016,05,07,01,10,12.00
2016,05,07,01,11,12.00
2016,05,07,01,12,12.00
2016,05,07,01,13,12.00
2016,05,07,01,14,11.90
2016,05,07,01,15,11.90
2016,05,07,01,16,11.90
2016,05,07,01,17,11.90
2016,05,07,01,18,11.90
2016,05,07,01,19,11.90
2016,05,07,01,20,11.80
2016,05,07,01,21,11.80
2016,05,07,01,22,11.80
2016,05,07,01,23,11.70
2016,05,07,01,24,11.70
2016,05,07,01,25,11.70
2016,05,07,01,26,11.70
2016,05,07,01,27,11.70
2016,05,07,01,28,11.60
2016,05,07,01,29,11.60
2016,05,07,01,30,11.60
2016,05,07,01,31,11.60
2016,05,07,01,32,11.60
2016,05,07,01,33,11.60
2016,05,07,01,34,11.50
2016,05,07,01,35,11.50
2016,05,07,01,36,11.50
2016,05,07,01,37,11.40
2016,05,07,01,38,11.40
2016,05,07,01,39,11.40
2016,05,07,01,40,11.30
2016,05,07,01,41,11.30
2016,05,07,01,42,11.30
2016,05,07,01,43,11.30
2016,05,07,01,44,11.30
2016,05,07,01,45,11.30
2016,05,07,01,46,11.30
2016,05,07,01,47,11.20
2016,05,07,01,48,11.20
2016,05,07,01,49,11.20
2016,05,07,01,50,11.20
2016,05,07,01,51,11.20
2016,05,07,01,52,11.20
2016,05,07,01,53,11.20
2016,05,07,01,54,11.20
2016,05,07,01,55,11.20
2016,05,07,01,56,11.20
2016,05,07,01,57,11.20
2016,05,07,01,58,11.10
2016,05,07,01,59,11.10
2016,05,07,02,00,11.10
2016,05,07,02,01,11.10
2016,05,07,02,02,11.10
2016,05,07,02,03,11.10
2016,05,07,02,04,11.10
2016,05,07,02,05,11.10
2016,05,07,02,06,11.10
2016,05,07,02,07,11.10
2016,05,07,02,08,11.10
2016,05,07,02,09,11.00
2016,05,07,02,10,11.00
2016,05,07,02,11,11.00
2016,05,07,02,12,11.00
2016,05,07,02,13,10.90
2016,05,07,02,14,10.90
2016,05,07,02,15,10.90
2016,05,07,02,16,10.90
2016,05,07,02,17,10.90
2016,05,07,02,18,10.80
2016,05,07,02,19,10.80
2016,05,07,02,20,10.80
2016,05,07,02,21,10.80
2016,05,07,02,22,10.80
2016,05,07,02,23,10.80
2016,05,07,02,24,10.70
2016,05,07,02,25,10.70
2016,05,07,02,26,10.70
2016,05,07,02,27,10.70
2016,05,07,02,28,10.70
2016,05,07,02,29,10.70
2016,05,07,02,30,10.60
2016,05,07,02,31,10.60
2016,05,07,02,32,10.60
2016,05,07,02,33,10.60
2016,05,07,02,34,10.60
2016,05,07,02,35,10.60
2016,05,07,02,36,10.50
2016,05,07,02,37,10.50
2016,05,07,02,38,10.50
2016,05,07,02,39,10.50
2016,05,07,02,40,10.40
2016,05,07,02,41,10.40
2016,05,07,02,42,10.40
2016,05,07,02,43,10.40
2016,05,07,02,44,10.40
2016,05,07,02,45,10.40
2016,05,07,02,46,10.40
2016,05,07,02,47,10.40
2016,05,07,02,48,10.40
2016,05,07,02,49,10.40
2016,05,07,02,50,10.30
2016,05,07,02,51,10.30
2016,05,07,02,52,10.30
2016,05,07,02,53,10.30
2016,05,07,02,54,10.30
2016,05,07,02,55,10.30
2016,05,07,02,56,10.20
2016,05,07,02,57,10.20
2016,05,07,02,58,10.20
2016,05,07,02,59,10.20
2016,05,07,03,00,10.20
2016,05,07,03,01,10.20
2016,05,07,03,02,10.20
2016,05,07,03,03,10.10
2016,05,07,03,04,10.10
2016,05,07,03,05,10.10
2016,05,07,03,06,10.10
2016,05,07,03,07,10.10
2016,05,07,03,08,10.00
2016,05,07,03,09,10.00
2016,05,07,03,10,10.00
2016,05,07,03,11,9.90
2016,05,07,03,12,9.90
2016,05,07,03,13,9.90
2016,05,07,03,14,9.90
2016,05,07,03,15,9.90
2016,05,07,03,16,9.90
2016,05,07,03,17,9.90
2016,05,07,03,18,9.90
2016,05,07,03,19,9.90
2016,05,07,03,20,9.90
2016,05,07,03,21,9.90
2016,05,07,03,22,9.90
2016,05,07,03,23,10.00
2016,05,07,03,24,10.00
2016,05,07,03,25,10.00
2016,05,07,03,26,9.90
2016,05,07,03,27,9.90
2016,05,07,03,28,9.90
2016,05,07,03,29,9.90
2016,05,07,03,30,9.90
2016,05,07,03,31,9.90
2016,05,07,03,32,9.90
2016,05,07,03,33,9.90
2016,05,07,03,34,9.90
2016,05,07,03,35,9.90
2016,05,07,03,36,9.80
2016,05,07,03,37,9.80
2016,05,07,03,38,9.80
2016,05,07,03,39,9.80
2016,05,07,03,40,9.80
2016,05,07,03,41,9.80
2016,05,07,03,42,9.80
2016,05,07,03,43,9.80
2016,05,07,03,44,9.70
2016,05,07,03,45,9.70
2016,05,07,03,46,9.70
2016,05,07,03,47,9.70
2016,05,07,03,48,9.70
2016,05,07,03,49,9.70
2016,05,07,03,50,9.70
2016,05,07,03,51,9.70
2016,05,07,03,52,9.60
2016,05,07,03,53,9.60
2016,05,07,03,54,9.60
2016,05,07,03,55,9.60
2016,05,07,03,56,9.60
2016,05,07,03,57,9.60
2016,05,07,03,58,9.60
2016,05,07,03,59,9.60
2016,05,07,04,00,9.60
2016,05,07,04,01,9.50
2016,05,07,04,02,9.50
2016,05,07,04,03,9.50
2016,05,07,04,04,9.50
2016,05,07,04,05,9.40
2016,05,07,04,06,9.40
2016,05,07,04,07,9.40
2016,05,07,04,08,9.40
2016,05,07,04,09,9.40
2016,05,07,04,10,9.40
2016,05,07,04,11,9.40
2016,05,07,04,12,9.30
2016,05,07,04,13,9.30
2016,05,07,04,14,9.30
2016,05,07,04,15,9.30
2016,05,07,04,16,9.30
2016,05,07,04,17,9.30
2016,05,07,04,18,9.30
2016,05,07,04,19,9.30
2016,05,07,04,20,9.30
2016,05,07,04,21,9.30
2016,05,07,04,22,9.20
2016,05,07,04,23,9.20
2016,05,07,04,24,9.20
2016,05,07,04,25,9.20
2016,05,07,04,26,9.20
2016,05,07,04,27,9.20
2016,05,07,04,28,9.20
2016,05,07,04,29,9.20
2016,05,07,04,30,9.20
2016,05,07,04,31,9.20
2016,05,07,04,32,9.20
2016,05,07,04,33,9.20
2016,05,07,04,34,9.20
2016,05,07,04,35,9.20
2016,05,07,04,36,9.20
2016,05,07,04,37,9.20
2016,05,07,04,38,9.20
2016,05,07,04,39,9.20
2016,05,07,04,40,9.20
2016,05,07,04,41,9.20
2016,05,07,04,42,9.20
2016,05,07,04,43,9.20
2016,05,07,04,44,9.20
2016,05,07,04,45,9.20
2016,05,07,04,46,9.20
2016,05,07,04,47,9.20
2016,05,07,04,48,9.20
2016,05,07,04,49,9.20
2016,05,07,04,50,9.20
2016,05,07,04,51,9.20
2016,05,07,04,52,9.20
2016,05,07,04,53,9.20
2016,05,07,04,54,9.20
2016,05,07,04,55,9.20
2016,05,07,04,56,9.10
2016,05,07,04,57,9.10
2016,05,07,04,58,9.10
2016,05,07,04,59,9.10
2016,05,07,05,00,9.10
2016,05,07,05,01,9.10
2016,05,07,05,02,9.10
2016,05,07,05,03,9.00
2016,05,07,05,04,9.00
2016,05,07,05,05,9.00
2016,05,07,05,06,9.00
2016,05,07,05,07,8.90
2016,05,07,05,08,8.90
2016,05,07,05,09,8.90
2016,05,07,05,10,8.90
2016,05,07,05,11,8.90
2016,05,07,05,12,8.90
2016,05,07,05,13,8.90
2016,05,07,05,14,8.80
2016,05,07,05,15,8.80
2016,05,07,05,16,8.80
2016,05,07,05,17,8.80
2016,05,07,05,18,8.70
2016,05,07,05,19,8.70
2016,05,07,05,20,8.70
2016,05,07,05,21,8.70
2016,05,07,05,22,8.70
2016,05,07,05,23,8.70
2016,05,07,05,24,8.60
2016,05,07,05,25,8.60
2016,05,07,05,26,8.60
2016,05,07,05,27,8.60
2016,05,07,05,28,8.60
2016,05,07,05,29,8.60
2016,05,07,05,30,8.60
2016,05,07,05,31,8.60
2016,05,07,05,32,8.60
2016,05,07,05,33,8.50
2016,05,07,05,34,8.50
2016,05,07,05,35,8.50
2016,05,07,05,36,8.50
2016,05,07,05,37,8.50
2016,05,07,05,38,8.40
2016,05,07,05,39,8.40
2016,05,07,05,40,8.40
2016,05,07,05,41,8.40
2016,05,07,05,42,8.40
2016,05,07,05,43,8.40
2016,05,07,05,44,8.40
2016,05,07,05,45,8.40
2016,05,07,05,46,8.40
2016,05,07,05,47,8.40
2016,05,07,05,48,8.40
2016,05,07,05,49,8.40
2016,05,07,05,50,8.40
2016,05,07,05,51,8.40
2016,05,07,05,52,8.40
2016,05,07,05,53,8.40
2016,05,07,05,54,8.40
2016,05,07,05,55,8.30
2016,05,07,05,56,8.30
2016,05,07,05,57,8.30
2016,05,07,05,58,8.30
2016,05,07,05,59,8.30
2016,05,07,06,00,8.30
2016,05,07,06,01,8.30
2016,05,07,06,02,8.30
2016,05,07,06,03,8.30
2016,05,07,06,04,8.30
2016,05,07,06,05,8.30
2016,05,07,06,06,8.30
2016,05,07,06,07,8.30
2016,05,07,06,08,8.30
2016,05,07,06,09,8.30
2016,05,07,06,10,8.30
2016,05,07,06,11,8.30
2016,05,07,06,12,8.30
2016,05,07,06,13,8.30
2016,05,07,06,14,8.30
2016,05,07,06,15,8.30
2016,05,07,06,16,8.30
2016,05,07,06,17,8.40
2016,05,07,06,18,8.40
2016,05,07,06,19,8.50
2016,05,07,06,20,8.50
2016,05,07,06,21,8.60
2016,05,07,06,22,8.60
2016,05,07,06,23,8.70
2016,05,07,06,24,8.70
2016,05,07,06,25,8.80
2016,05,07,06,26,8.80
2016,05,07,06,27,8.80
2016,05,07,06,28,8.90
2016,05,07,06,29,8.90
2016,05,07,06,30,8.90
2016,05,07,06,31,8.90
2016,05,07,06,32,9.00
2016,05,07,06,33,8.90
2016,05,07,06,34,8.90
2016,05,07,06,35,9.00
2016,05,07,06,36,9.00
2016,05,07,06,37,9.10
2016,05,07,06,38,9.20
2016,05,07,06,39,9.20
2016,05,07,06,40,9.30
2016,05,07,06,41,9.40
2016,05,07,06,42,9.40
2016,05,07,06,43,9.50
2016,05,07,06,44,9.50
2016,05,07,06,45,9.60
2016,05,07,06,46,9.60
2016,05,07,06,47,9.70
2016,05,07,06,48,9.80
2016,05,07,06,49,9.80
2016,05,07,06,50,9.80
2016,05,07,06,51,9.80
2016,05,07,06,52,9.90
2016,05,07,06,53,9.90
2016,05,07,06,54,9.90
2016,05,07,06,55,10.00
2016,05,07,06,56,10.00
2016,05,07,06,57,10.10
2016,05,07,06,58,10.20
2016,05,07,06,59,10.30
2016,05,07,07,00,10.50
2016,05,07,07,01,10.50
2016,05,07,07,02,10.60
2016,05,07,07,03,10.70
2016,05,07,07,04,10.80
2016,05,07,07,05,10.80
2016,05,07,07,06,11.00
2016,05,07,07,07,11.00
2016,05,07,07,08,11.10
2016,05,07,07,09,11.20
2016,05,07,07,10,11.20
2016,05,07,07,11,11.20
2016,05,07,07,12,11.30
2016,05,07,07,13,11.30
2016,05,07,07,14,11.40
2016,05,07,07,15,11.50
2016,05,07,07,16,11.60
2016,05,07,07,17,11.60
2016,05,07,07,18,11.60
2016,05,07,07,19,11.70
2016,05,07,07,20,11.70
2016,05,07,07,21,11.70
2016,05,07,07,22,11.70
2016,05,07,07,23,11.80
2016,05,07,07,24,11.80
2016,05,07,07,25,11.90
2016,05,07,07,26,11.90
2016,05,07,07,27,12.00
2016,05,07,07,28,12.10
2016,05,07,07,29,12.10
2016,05,07,07,30,12.10
2016,05,07,07,31,12.20
2016,05,07,07,32,12.20
2016,05,07,07,33,12.20
2016,05,07,07,34,12.20
2016,05,07,07,35,12.20
2016,05,07,07,36,12.20
2016,05,07,07,37,12.30
2016,05,07,07,38,12.30
2016,05,07,07,39,12.40
2016,05,07,07,40,12.40
2016,05,07,07,41,12.50
2016,05,07,07,42,12.60
2016,05,07,07,43,12.60
2016,05,07,07,44,12.70
2016,05,07,07,45,12.80
2016,05,07,07,46,12.80
2016,05,07,07,47,12.90
2016,05,07,07,48,12.90
2016,05,07,07,49,13.00
2016,05,07,07,50,13.00
2016,05,07,07,51,13.10
2016,05,07,07,52,13.20
2016,05,07,07,53,13.20
2016,05,07,07,54,13.30
2016,05,07,07,55,13.40
2016,05,07,07,56,13.50
2016,05,07,07,57,13.60
2016,05,07,07,58,13.70
2016,05,07,07,59,13.80
2016,05,07,08,00,13.90
2016,05,07,08,01,14.00
2016,05,07,08,02,14.00
2016,05,07,08,03,14.20
2016,05,07,08,04,14.30
2016,05,07,08,05,14.50
2016,05,07,08,06,14.60
2016,05,07,08,07,14.80
2016,05,07,08,08,14.90
2016,05,07,08,09,15.00
2016,05,07,08,10,15.10
2016,05,07,08,11,15.20
2016,05,07,08,12,15.30
2016,05,07,08,13,15.40
2016,05,07,08,14,15.40
2016,05,07,08,15,15.50
2016,05,07,08,16,15.50
2016,05,07,08,17,15.50
2016,05,07,08,18,15.50
2016,05,07,08,19,15.60
2016,05,07,08,20,15.60
2016,05,07,08,21,15.60
2016,05,07,08,22,15.60
2016,05,07,08,23,15.60
2016,05,07,08,24,15.70
2016,05,07,08,25,15.70
2016,05,07,08,26,15.70
2016,05,07,08,27,15.70
2016,05,07,08,28,15.80
2016,05,07,08,29,15.80
2016,05,07,08,30,15.90
2016,05,07,08,31,15.90
2016,05,07,08,32,16.00
2016,05,07,08,33,16.00
2016,05,07,08,34,16.10
2016,05,07,08,35,16.20
2016,05,07,08,36,16.20
2016,05,07,08,37,16.30
2016,05,07,08,38,16.30
2016,05,07,08,39,16.30
2016,05,07,08,40,16.40
2016,05,07,08,41,16.50
2016,05,07,08,42,16.60
2016,05,07,08,43,16.60
2016,05,07,08,44,16.70
2016,05,07,08,45,16.70
2016,05,07,08,46,16.80
2016,05,07,08,47,16.80
2016,05,07,08,48,16.90
2016,05,07,08,49,17.00
2016,05,07,08,50,17.00
2016,05,07,08,51,17.00
2016,05,07,08,52,17.10
2016,05,07,08,53,17.10
2016,05,07,08,54,17.20
2016,05,07,08,55,17.20
2016,05,07,08,56,17.20
2016,05,07,08,57,17.20
2016,05,07,08,58,17.20
2016,05,07,08,59,17.30
2016,05,07,09,00,17.40
2016,05,07,09,01,17.50
2016,05,07,09,02,17.60
2016,05,07,09,03,17.60
2016,05,07,09,04,17.70
2016,05,07,09,05,17.70
2016,05,07,09,06,17.80
2016,05,07,09,07,17.80
2016,05,07,09,08,17.90
2016,05,07,09,09,17.90
2016,05,07,09,10,18.00
2016,05,07,09,11,18.00
2016,05,07,09,12,18.10
2016,05,07,09,13,18.20
2016,05,07,09,14,18.20
2016,05,07,09,15,18.30
2016,05,07,09,16,18.40
2016,05,07,09,17,18.40
2016,05,07,09,18,18.60
2016,05,07,09,19,18.70
2016,05,07,09,20,18.80
2016,05,07,09,21,18.90
2016,05,07,09,22,18.90
2016,05,07,09,23,18.90
2016,05,07,09,24,18.90
2016,05,07,09,25,18.90
2016,05,07,09,26,19.00
2016,05,07,09,27,19.00
2016,05,07,09,28,19.00
2016,05,07,09,29,19.00
2016,05,07,09,30,19.00
2016,05,07,09,31,19.00
2016,05,07,09,32,19.10
2016,05,07,09,33,19.10
2016,05,07,09,34,19.10
2016,05,07,09,35,19.30
2016,05,07,09,36,19.30
2016,05,07,09,37,19.30
2016,05,07,09,38,19.20
2016,05,07,09,39,19.10
2016,05,07,09,40,19.00
2016,05,07,09,41,19.00
2016,05,07,09,42,19.00
2016,05,07,09,43,19.00
2016,05,07,09,44,19.10
2016,05,07,09,45,19.10
2016,05,07,09,46,19.30
2016,05,07,09,47,19.40
2016,05,07,09,48,19.40
2016,05,07,09,49,19.50
2016,05,07,09,50,19.50
2016,05,07,09,51,19.60
2016,05,07,09,52,19.60
2016,05,07,09,53,19.60
2016,05,07,09,54,19.60
2016,05,07,09,55,19.60
2016,05,07,09,56,19.80
2016,05,07,09,57,19.90
2016,05,07,09,58,19.90
2016,05,07,09,59,19.80
2016,05,07,10,00,19.80
2016,05,07,10,01,19.80
2016,05,07,10,02,19.80
2016,05,07,10,03,19.80
2016,05,07,10,04,19.80
2016,05,07,10,05,19.90
2016,05,07,10,06,19.90
2016,05,07,10,07,20.00
2016,05,07,10,08,20.00
2016,05,07,10,09,20.10
2016,05,07,10,10,20.00
2016,05,07,10,11,20.00
2016,05,07,10,12,20.00
2016,05,07,10,13,20.10
2016,05,07,10,14,20.20
2016,05,07,10,15,20.30
2016,05,07,10,16,20.40
2016,05,07,10,17,20.40
2016,05,07,10,18,20.50
2016,05,07,10,19,20.50
2016,05,07,10,20,20.50
2016,05,07,10,21,20.60
2016,05,07,10,22,20.60
2016,05,07,10,23,20.70
2016,05,07,10,24,20.80
2016,05,07,10,25,20.90
2016,05,07,10,26,20.90
2016,05,07,10,27,20.90
2016,05,07,10,28,20.90
2016,05,07,10,29,20.80
2016,05,07,10,30,20.90
2016,05,07,10,31,20.90
2016,05,07,10,32,20.90
2016,05,07,10,33,21.00
2016,05,07,10,34,21.10
2016,05,07,10,35,21.10
2016,05,07,10,36,21.00
2016,05,07,10,37,20.90
2016,05,07,10,38,20.90
2016,05,07,10,39,20.80
2016,05,07,10,40,20.60
2016,05,07,10,41,20.40
2016,05,07,10,42,20.30
2016,05,07,10,43,20.30
2016,05,07,10,44,20.30
2016,05,07,10,45,20.20
2016,05,07,10,46,20.10
2016,05,07,10,47,20.20
2016,05,07,10,48,20.20
2016,05,07,10,49,20.20
2016,05,07,10,50,20.20
2016,05,07,10,51,20.20
2016,05,07,10,52,20.20
2016,05,07,10,53,20.20
2016,05,07,10,54,20.20
2016,05,07,10,55,20.30
2016,05,07,10,56,20.30
2016,05,07,10,57,20.40
2016,05,07,10,58,20.40
2016,05,07,10,59,20.40
2016,05,07,11,00,20.40
2016,05,07,11,01,20.50
2016,05,07,11,02,20.60
2016,05,07,11,03,20.60
2016,05,07,11,04,20.60
2016,05,07,11,05,20.50
2016,05,07,11,06,20.50
2016,05,07,11,07,20.40
2016,05,07,11,08,20.40
2016,05,07,11,09,20.30
2016,05,07,11,10,20.20
2016,05,07,11,11,20.20
2016,05,07,11,12,20.20
2016,05,07,11,13,20.20
2016,05,07,11,14,20.20
2016,05,07,11,15,20.10
2016,05,07,11,16,20.00
2016,05,07,11,17,19.90
2016,05,07,11,18,20.00
2016,05,07,11,19,20.20
2016,05,07,11,20,20.30
2016,05,07,11,21,20.30
2016,05,07,11,22,20.30
2016,05,07,11,23,20.20
2016,05,07,11,24,20.20
2016,05,07,11,25,20.20
2016,05,07,11,26,20.20
2016,05,07,11,27,20.10
2016,05,07,11,28,20.00
2016,05,07,11,29,20.00
2016,05,07,11,30,19.90
2016,05,07,11,31,19.90
2016,05,07,11,32,20.00
2016,05,07,11,33,19.90
2016,05,07,11,34,19.90
2016,05,07,11,35,20.00
2016,05,07,11,36,20.10
2016,05,07,11,37,19.90
2016,05,07,11,38,19.70
2016,05,07,11,39,19.60
2016,05,07,11,40,19.70
2016,05,07,11,41,19.60
2016,05,07,11,42,19.60
2016,05,07,11,43,19.50
2016,05,07,11,44,19.20
2016,05,07,11,45,18.90
2016,05,07,11,46,18.70
2016,05,07,11,47,18.60
2016,05,07,11,48,18.60
2016,05,07,11,49,18.60
2016,05,07,11,50,18.50
2016,05,07,11,51,18.30
2016,05,07,11,52,18.20
2016,05,07,11,53,18.20
2016,05,07,11,54,18.20
2016,05,07,11,55,18.20
2016,05,07,11,56,18.00
2016,05,07,11,57,18.00
2016,05,07,11,58,18.00
2016,05,07,11,59,18.00
2016,05,07,12,00,18.10
2016,05,07,12,01,18.10
2016,05,07,12,02,18.20
2016,05,07,12,03,18.20
2016,05,07,12,04,18.30
2016,05,07,12,05,18.40
2016,05,07,12,06,18.60
2016,05,07,12,07,18.80
2016,05,07,12,08,18.70
2016,05,07,12,09,18.80
2016,05,07,12,10,18.80
2016,05,07,12,11,18.80
2016,05,07,12,12,18.90
2016,05,07,12,13,19.00
2016,05,07,12,14,19.10
2016,05,07,12,15,19.20
2016,05,07,12,16,19.20
2016,05,07,12,17,19.10
2016,05,07,12,18,19.10
2016,05,07,12,19,19.10
2016,05,07,12,20,19.10
2016,05,07,12,21,19.10
2016,05,07,12,22,19.20
2016,05,07,12,23,19.30
2016,05,07,12,24,19.30
2016,05,07,12,25,19.40
2016,05,07,12,26,19.40
2016,05,07,12,27,19.50
2016,05,07,12,28,19.50
2016,05,07,12,29,19.50
2016,05,07,12,30,19.40
2016,05,07,12,31,19.40
2016,05,07,12,32,19.40
2016,05,07,12,33,19.30
2016,05,07,12,34,19.40
2016,05,07,12,35,19.50
2016,05,07,12,36,19.40
2016,05,07,12,37,19.20
2016,05,07,12,38,19.10
2016,05,07,12,39,19.10
2016,05,07,12,40,19.30
2016,05,07,12,41,19.40
2016,05,07,12,42,19.40
2016,05,07,12,43,19.30
2016,05,07,12,44,19.40
2016,05,07,12,45,19.60
2016,05,07,12,46,19.70
2016,05,07,12,47,19.80
2016,05,07,12,48,19.70
2016,05,07,12,49,19.60
2016,05,07,12,50,19.50
2016,05,07,12,51,19.60
2016,05,07,12,52,19.50
2016,05,07,12,53,19.60
2016,05,07,12,54,19.60
2016,05,07,12,55,19.50
2016,05,07,12,56,19.30
2016,05,07,12,57,19.30
2016,05,07,12,58,19.20
2016,05,07,12,59,19.20
2016,05,07,13,00,19.20
2016,05,07,13,01,19.20
2016,05,07,13,02,19.20
2016,05,07,13,03,19.20
2016,05,07,13,04,19.10
2016,05,07,13,05,19.20
2016,05,07,13,06,19.20
2016,05,07,13,07,19.20
2016,05,07,13,08,19.20
2016,05,07,13,09,19.20
2016,05,07,13,10,19.20
2016,05,07,13,11,19.30
2016,05,07,13,12,19.40
2016,05,07,13,13,19.50
2016,05,07,13,14,19.30
2016,05,07,13,15,19.30
2016,05,07,13,16,19.20
2016,05,07,13,17,19.30
2016,05,07,13,18,19.30
2016,05,07,13,19,19.30
2016,05,07,13,20,19.30
2016,05,07,13,21,19.30
2016,05,07,13,22,19.20
2016,05,07,13,23,19.20
2016,05,07,13,24,19.20
2016,05,07,13,25,19.30
2016,05,07,13,26,19.40
2016,05,07,13,27,19.40
2016,05,07,13,28,19.40
2016,05,07,13,29,19.50
2016,05,07,13,30,19.60
2016,05,07,13,31,19.60
2016,05,07,13,32,19.40
2016,05,07,13,33,19.30
2016,05,07,13,34,19.40
2016,05,07,13,35,19.50
2016,05,07,13,36,19.50
2016,05,07,13,37,19.60
2016,05,07,13,38,19.60
2016,05,07,13,39,19.50
2016,05,07,13,40,19.60
2016,05,07,13,41,19.60
2016,05,07,13,42,19.40
2016,05,07,13,43,19.10
2016,05,07,13,44,19.00
2016,05,07,13,45,19.00
2016,05,07,13,46,18.90
2016,05,07,13,47,18.90
2016,05,07,13,48,19.00
2016,05,07,13,49,19.20
2016,05,07,13,50,19.20
2016,05,07,13,51,19.10
2016,05,07,13,52,19.00
2016,05,07,13,53,19.00
2016,05,07,13,54,19.00
2016,05,07,13,55,19.00
2016,05,07,13,56,19.10
2016,05,07,13,57,19.00
2016,05,07,13,58,19.00
2016,05,07,13,59,19.00
2016,05,07,14,00,18.90
2016,05,07,14,01,18.70
2016,05,07,14,02,18.30
2016,05,07,14,03,17.80
2016,05,07,14,04,17.40
2016,05,07,14,05,17.20
2016,05,07,14,06,17.10
2016,05,07,14,07,17.10
2016,05,07,14,08,17.00
2016,05,07,14,09,17.00
2016,05,07,14,10,17.20
2016,05,07,14,11,17.40
2016,05,07,14,12,17.60
2016,05,07,14,13,17.80
2016,05,07,14,14,17.90
2016,05,07,14,15,18.10
2016,05,07,14,16,18.20
2016,05,07,14,17,18.40
2016,05,07,14,18,18.70
2016,05,07,14,19,18.90
2016,05,07,14,20,19.10
2016,05,07,14,21,19.20
2016,05,07,14,22,19.40
2016,05,07,14,23,19.60
2016,05,07,14,24,19.60
2016,05,07,14,25,19.60
2016,05,07,14,26,19.80
2016,05,07,14,27,19.90
2016,05,07,14,28,20.00
2016,05,07,14,29,20.00
2016,05,07,14,30,20.00
2016,05,07,14,31,20.00
2016,05,07,14,32,20.00
2016,05,07,14,33,20.10
2016,05,07,14,34,20.30
2016,05,07,14,35,20.50
2016,05,07,14,36,20.60
2016,05,07,14,37,20.70
2016,05,07,14,38,20.70
2016,05,07,14,39,20.80
2016,05,07,14,40,21.00
2016,05,07,14,41,21.20
2016,05,07,14,42,21.30
2016,05,07,14,43,21.20
2016,05,07,14,44,21.10
2016,05,07,14,45,21.20
2016,05,07,14,46,21.20
2016,05,07,14,47,21.30
2016,05,07,14,48,21.30
2016,05,07,14,49,21.40
2016,05,07,14,50,21.50
2016,05,07,14,51,21.50
2016,05,07,14,52,21.60
2016,05,07,14,53,21.80
2016,05,07,14,54,22.10
2016,05,07,14,55,22.30
2016,05,07,14,56,22.60
2016,05,07,14,57,22.80
2016,05,07,14,58,23.00
2016,05,07,14,59,23.10
2016,05,07,15,00,23.30
2016,05,07,15,01,23.60
2016,05,07,15,02,23.80
2016,05,07,15,03,23.90
2016,05,07,15,04,24.10
2016,05,07,15,05,24.20
2016,05,07,15,06,24.30
2016,05,07,15,07,24.40
2016,05,07,15,08,24.60
2016,05,07,15,09,24.70
2016,05,07,15,10,24.90
2016,05,07,15,11,25.10
2016,05,07,15,12,25.10
2016,05,07,15,13,25.10
2016,05,07,15,14,25.10
2016,05,07,15,15,25.20
2016,05,07,15,16,25.20
2016,05,07,15,17,25.30
2016,05,07,15,18,25.20
2016,05,07,15,19,25.20
2016,05,07,15,20,25.20
2016,05,07,15,21,25.10
2016,05,07,15,22,25.00
2016,05,07,15,23,24.90
2016,05,07,15,24,24.80
2016,05,07,15,25,24.70
2016,05,07,15,26,24.70
2016,05,07,15,27,24.60
2016,05,07,15,28,24.60
2016,05,07,15,29,24.70
2016,05,07,15,30,24.60
2016,05,07,15,31,24.60
2016,05,07,15,32,24.50
2016,05,07,15,33,24.40
2016,05,07,15,34,24.40
2016,05,07,15,35,24.40
2016,05,07,15,36,24.40
2016,05,07,15,37,24.30
2016,05,07,15,38,24.30
2016,05,07,15,39,24.30
2016,05,07,15,40,24.40
2016,05,07,15,41,24.30
2016,05,07,15,42,24.30
2016,05,07,15,43,24.30
2016,05,07,15,44,24.30
2016,05,07,15,45,24.30
2016,05,07,15,46,24.30
2016,05,07,15,47,24.30
2016,05,07,15,48,24.10
2016,05,07,15,49,24.00
2016,05,07,15,50,23.90
2016,05,07,15,51,23.70
2016,05,07,15,52,23.60
2016,05,07,15,53,23.50
2016,05,07,15,54,23.50
2016,05,07,15,55,23.40
2016,05,07,15,56,23.40
2016,05,07,15,57,23.30
2016,05,07,15,58,23.40
2016,05,07,15,59,23.30
2016,05,07,16,00,23.30
2016,05,07,16,01,23.40
2016,05,07,16,02,23.40
2016,05,07,16,03,23.40
2016,05,07,16,04,23.40
2016,05,07,16,05,23.40
2016,05,07,16,06,23.50
2016,05,07,16,07,23.50
2016,05,07,16,08,23.60
2016,05,07,16,09,23.50
2016,05,07,16,10,23.40
2016,05,07,16,11,23.30
2016,05,07,16,12,23.40
2016,05,07,16,13,23.30
2016,05,07,16,14,23.30
2016,05,07,16,15,23.10
2016,05,07,16,16,23.00
2016,05,07,16,17,23.00
2016,05,07,16,18,22.90
2016,05,07,16,19,22.80
2016,05,07,16,20,22.70
2016,05,07,16,21,22.70
2016,05,07,16,22,22.70
2016,05,07,16,23,22.50
2016,05,07,16,24,22.40
2016,05,07,16,25,22.20
2016,05,07,16,26,21.90
2016,05,07,16,27,21.70
2016,05,07,16,28,21.50
2016,05,07,16,29,21.40
2016,05,07,16,30,21.30
2016,05,07,16,31,21.20
2016,05,07,16,32,21.10
2016,05,07,16,33,21.00
2016,05,07,16,34,20.80
2016,05,07,16,35,20.80
2016,05,07,16,36,20.70
2016,05,07,16,37,20.60
2016,05,07,16,38,20.40
2016,05,07,16,39,20.30
2016,05,07,16,40,20.10
2016,05,07,16,41,20.10
2016,05,07,16,42,20.10
2016,05,07,16,43,20.10
2016,05,07,16,44,20.10
2016,05,07,16,45,20.10
2016,05,07,16,46,20.10
2016,05,07,16,47,20.00
2016,05,07,16,48,19.90
2016,05,07,16,49,19.90
2016,05,07,16,50,20.00
2016,05,07,16,51,20.00
2016,05,07,16,52,20.00
2016,05,07,16,53,20.10
2016,05,07,16,54,20.00
2016,05,07,16,55,19.80
2016,05,07,16,56,19.50
2016,05,07,16,57,19.40
2016,05,07,16,58,19.30
2016,05,07,16,59,19.20
2016,05,07,17,00,19.10
2016,05,07,17,01,19.10
2016,05,07,17,02,19.00
2016,05,07,17,03,19.00
2016,05,07,17,04,19.00
2016,05,07,17,05,18.90
2016,05,07,17,06,18.90
2016,05,07,17,07,18.80
2016,05,07,17,08,18.80
2016,05,07,17,09,18.80
2016,05,07,17,10,18.90
2016,05,07,17,11,19.00
2016,05,07,17,12,19.00
2016,05,07,17,13,19.00
2016,05,07,17,14,19.10
2016,05,07,17,15,19.10
2016,05,07,17,16,19.10
2016,05,07,17,17,19.00
2016,05,07,17,18,18.80
2016,05,07,17,19,18.60
2016,05,07,17,20,18.50
2016,05,07,17,21,18.40
2016,05,07,17,22,18.40
2016,05,07,17,23,18.30
2016,05,07,17,24,18.30
2016,05,07,17,25,18.20
2016,05,07,17,26,18.00
2016,05,07,17,27,17.90
2016,05,07,17,28,17.80
2016,05,07,17,29,17.80